Regional Weather Roundup
Issued by NWS Northern Indiana

Home | Current Version | Previous Version | Graphics & Text | Print | Product List | Glossary On
Versions: 1 2 3 4 5 6 7 8 9 10 11 12 13 14 15 16 17 18 19 20 21 22 23 24 25 26 27 28 29 30 31 32 33 34 35 36 37 38 39 40 41 42 43 44 45 46 47 48 49 50
000
ASUS43 KIWX 290210
RWRIWX

KIWX WEATHER ROUNDUP
NATIONAL WEATHER SERVICE NORTHERN INDIANA
900 PM EST WED JAN 28 2015

NOTE: "FAIR" INDICATES FEW OR NO CLOUDS BELOW 12,000 FEET WITH NO
SIGNIFICANT WEATHER AND/OR OBSTRUCTIONS TO VISIBILITY.

* THESE STATIONS ARE NOT UNDER NWS QUALITY CONTROL. THEY ALSO MAY NOT
  REPORT WEATHER SUCH AS PRECIPITATION OR FOG.

INZ001>027-290300-
NORTHERN INDIANA

CITY           SKY/WX    TMP DP  RH WIND       PRES   REMARKS
GARY*          CLOUDY    34  16  47 S14G30    29.96F WCI  24
VALPARAISO     MOCLDY    31  20  63 SE14      29.99F WCI  21
MICHIGAN CITY* MOCLDY    32  16  51 SE7G17    29.99F WCI  26
LAPORTE*       MOCLDY    32  22  66 SE13G20   30.00F WCI  22
KNOX*          FAIR      30   9  41 SE20      30.01F WCI  18
SOUTH BEND     CLOUDY    28  18  66 SE20G25   30.04F WCI  15
ELKHART*       CLOUDY    27  16  63 SE13G20   30.07F WCI  16
GOSHEN         CLOUDY    27  18  69 SE15G24   30.07F WCI  15
MONTICELLO*    MOCLDY    32  21  63 SE13G20   30.02F WCI  22
LOGANSPORT*    MOCLDY    32  23  69 SE14      30.06F WCI  22
ROCHESTER*     MOCLDY    32  23  69 SE13      30.06F WCI  22
WARSAW*        CLOUDY    27  19  74 SE10G17   30.08F WCI  17
ANGOLA*        CLEAR     21  16  79 SE13      30.11F WCI   9
FORT WAYNE     CLOUDY    25  17  72 SE12      30.13F WCI  14
HUNTINGTON*    MOCLDY    27  15  62 SE9       30.12S WCI  17
PERU/GRISSOM   MOCLDY    31  22  69 SE17      30.05F WCI  19
MARION*        CLOUDY    30  20  68 SE13      30.11F WCI  20

$$
INZ028>050-290300-
CENTRAL INDIANA

CITY           SKY/WX    TMP DP  RH WIND       PRES   REMARKS
LAFAYETTE      MOCLDY    33  19  56 SE15G23   30.02F WCI  23
KOKOMO*        MOCLDY    30  21  69 S20G25    30.07F WCI  18
MUNCIE*        MOCLDY    31  19  61 S14G22    30.11F WCI  21
INDIANAPOLIS   MOCLDY    30  17  58 SE17      30.09F WCI  18

$$
MIZ043>046-050>051-056>058-064>065-071>073-077>080-290300-
SOUTHWEST LOWER MICHIGAN

CITY           SKY/WX    TMP DP  RH WIND       PRES   REMARKS
BATTLE CREEK   CLOUDY    26  12  55 SE14      30.09F WCI  14
BENTON HARBOR  CLOUDY    28  16  60 SE16G26   30.00F WCI  16
COLDWATER*     CLOUDY    25  14  64 SE14G21   30.10F WCI  13
HILLSDALE*     MOCLDY    22  15  73 S6        30.12F WCI  15
HOLLAND        CLOUDY    29  10  45 SE15      30.02F WCI  18
GRAND RAPIDS   CLOUDY    27   7  42 SE10      30.05F WCI  17
KALAMAZOO      CLOUDY    25  14  63 SE9       30.07F WCI  15
STURGIS*       CLOUDY    25  16  68 SE12      30.08F WCI  14
THREE RIVERS*  FAIR      26  16  67 SE12      30.09F WCI  15

$$
OHZ001>008-015>018-024>025-290300-
NORTHWEST OHIO

CITY           SKY/WX    TMP DP  RH WIND       PRES   REMARKS
WAUSEON*       FAIR      23  16  74 SE13      30.17F WCI  11
DEFIANCE       MOCLDY    24  15  68 SE7       30.17F WCI  16
FINDLAY        PTCLDY    23  13  65 SE13      30.19F WCI  11
TOLEDO EXPRESS PTCLDY    21  13  71 SE5       30.19F WCI  15
TOLEDO METCALF MOCLDY    22  13  68 SE8       30.23F WCI  12
LIMA           MOCLDY    26  16  65 SE16      30.16F WCI  14

$$
AND FOR LAKE MICHIGAN COASTAL AND OPEN LAKE BUOY OBSERVATIONS

STATION/POSITION TEMP    WIND        PRES    VSBY  WAVE
                 AIR SEA DIR/SP/G                  HT/PER
                 (F)     (DEG/KT/KT) (MB)    (MI)  (FT/S)
CALUMET HARBOR    33     150/ 14/ 20   N/A
MICHIGAN CITY     31     130/ 18/ 23   N/A
SAINT JOSEPH      29     150/  3/ 15 1015.9F

$$
&&



USA.gov is the U.S. government's official web portal to all federal, state and local government web resources and services.